Time,TemperatureF,DewpointF,PressureIn,WindDirection,WindDirectionDegrees,WindSpeedMPH,WindSpeedGustMPH,Humidity,HourlyPrecipIn,Conditions,Clouds,dailyrainin,SoftwareType,DateUTC
2013-08-06 00:02:00,61.0,55.0,30.07,North,359,0.0,0.0,80,0.00,,,0.00,,2013-08-06 04:02:00,
2013-08-06 00:11:00,61.0,55.0,30.07,North,359,0.0,0.0,80,0.00,,,0.00,,2013-08-06 04:11:00,
2013-08-06 00:22:00,61.0,55.0,30.07,North,359,0.0,0.0,80,0.00,,,0.00,,2013-08-06 04:22:00,
2013-08-06 00:33:00,61.0,55.0,30.07,North,359,0.0,0.0,80,0.00,,,0.00,,2013-08-06 04:33:00,
2013-08-06 01:02:00,60.0,54.0,30.08,North,359,0.0,0.0,82,0.00,,,0.00,,2013-08-06 05:02:00,
2013-08-06 01:11:00,60.0,54.0,30.08,North,359,0.0,0.0,82,0.00,,,0.00,,2013-08-06 05:11:00,
2013-08-06 01:32:00,60.0,54.0,30.08,North,359,0.0,0.0,82,0.00,,,0.00,,2013-08-06 05:32:00,
2013-08-06 01:43:00,60.0,54.0,30.08,North,359,0.0,0.0,81,0.00,,,0.00,,2013-08-06 05:43:00,
2013-08-06 02:02:00,60.0,54.0,30.08,North,359,0.0,0.0,81,0.00,,,0.00,,2013-08-06 06:02:00,
2013-08-06 02:12:00,59.0,53.0,30.08,North,359,0.0,0.0,81,0.00,,,0.00,,2013-08-06 06:12:00,
2013-08-06 02:32:00,59.0,54.0,30.08,North,359,0.0,0.0,84,0.00,,,0.00,,2013-08-06 06:32:00,
2013-08-06 02:43:00,59.0,54.0,30.08,North,359,0.0,0.0,84,0.00,,,0.00,,2013-08-06 06:43:00,
2013-08-06 03:01:00,58.0,54.0,30.08,North,359,0.0,0.0,85,0.00,,,0.00,,2013-08-06 07:01:00,
2013-08-06 03:12:00,58.0,54.0,30.08,North,359,0.0,0.0,85,0.00,,,0.00,,2013-08-06 07:12:00,
2013-08-06 03:22:00,58.0,54.0,30.08,North,359,0.0,0.0,85,0.00,,,0.00,,2013-08-06 07:22:00,
2013-08-06 03:32:00,58.0,54.0,30.09,North,359,0.0,0.0,86,0.00,,,0.00,,2013-08-06 07:32:00,
2013-08-06 03:43:00,57.0,53.0,30.09,North,359,0.0,0.0,87,0.00,,,0.00,,2013-08-06 07:43:00,
2013-08-06 04:02:00,57.0,53.0,30.09,North,359,0.0,0.0,88,0.00,,,0.00,,2013-08-06 08:02:00,
2013-08-06 04:11:00,57.0,53.0,30.09,North,359,0.0,0.0,88,0.00,,,0.00,,2013-08-06 08:11:00,
2013-08-06 04:22:00,56.0,53.0,30.09,North,359,0.0,0.0,89,0.00,,,0.00,,2013-08-06 08:22:00,
2013-08-06 04:33:00,56.0,53.0,30.09,North,359,0.0,0.0,90,0.00,,,0.00,,2013-08-06 08:33:00,
2013-08-06 04:43:00,56.0,53.0,30.09,North,359,0.0,0.0,91,0.00,,,0.00,,2013-08-06 08:43:00,
2013-08-06 05:01:00,55.0,53.0,30.10,North,359,0.0,0.0,92,0.00,,,0.00,,2013-08-06 09:01:00,
2013-08-06 05:11:00,55.0,53.0,30.10,North,359,0.0,0.0,92,0.00,,,0.00,,2013-08-06 09:11:00,
2013-08-06 05:32:00,55.0,53.0,30.10,North,359,0.0,0.0,92,0.00,,,0.00,,2013-08-06 09:32:00,
2013-08-06 05:43:00,55.0,53.0,30.10,North,359,0.0,0.0,92,0.00,,,0.00,,2013-08-06 09:43:00,
2013-08-06 05:52:00,55.0,53.0,30.10,North,359,0.0,0.0,92,0.00,,,0.00,,2013-08-06 09:52:00,
2013-08-06 06:01:00,55.0,53.0,30.10,North,359,0.0,0.0,92,0.00,,,0.00,,2013-08-06 10:01:00,
2013-08-06 06:12:00,55.0,53.0,30.11,North,359,0.0,0.0,92,0.00,,,0.00,,2013-08-06 10:12:00,
2013-08-06 06:32:00,55.0,53.0,30.11,North,359,0.0,0.0,93,0.00,,,0.00,,2013-08-06 10:32:00,
2013-08-06 07:02:00,55.0,53.0,30.11,North,359,0.0,0.0,93,0.00,,,0.00,,2013-08-06 11:02:00,
2013-08-06 07:11:00,55.0,53.0,30.11,North,359,0.0,0.0,93,0.00,,,0.00,,2013-08-06 11:11:00,
2013-08-06 07:22:00,55.0,53.0,30.12,North,359,0.0,0.0,93,0.00,,,0.00,,2013-08-06 11:22:00,
2013-08-06 07:32:00,56.0,54.0,30.12,North,359,0.0,0.0,92,0.00,,,0.00,,2013-08-06 11:32:00,
2013-08-06 08:02:00,58.0,55.0,30.12,North,359,0.0,0.0,90,0.00,,,0.00,,2013-08-06 12:02:00,
2013-08-06 08:11:00,58.0,55.0,30.12,North,359,0.0,0.0,90,0.00,,,0.00,,2013-08-06 12:11:00,
2013-08-06 08:32:00,61.0,56.0,30.12,North,359,0.0,0.0,84,0.00,,,0.00,,2013-08-06 12:32:00,
2013-08-06 08:43:00,63.0,57.0,30.12,North,359,0.0,0.0,80,0.00,,,0.00,,2013-08-06 12:43:00,
2013-08-06 08:52:00,63.0,57.0,30.12,North,359,0.0,0.0,80,0.00,,,0.00,,2013-08-06 12:52:00,
2013-08-06 09:02:00,66.0,57.0,30.12,North,359,0.0,0.0,74,0.00,,,0.00,,2013-08-06 13:02:00,
2013-08-06 09:11:00,66.0,57.0,30.12,North,359,0.0,0.0,74,0.00,,,0.00,,2013-08-06 13:11:00,
2013-08-06 09:22:00,67.0,57.0,30.12,North,359,0.0,0.0,71,0.00,,,0.00,,2013-08-06 13:22:00,
2013-08-06 10:01:00,71.0,57.0,30.13,North,359,0.0,0.0,62,0.00,,,0.00,,2013-08-06 14:01:00,
2013-08-06 10:11:00,72.0,57.0,30.13,North,359,0.0,0.0,60,0.00,,,0.00,,2013-08-06 14:11:00,
2013-08-06 10:32:00,73.0,56.0,30.13,North,359,0.0,0.0,56,0.00,,,0.00,,2013-08-06 14:32:00,
2013-08-06 10:42:00,73.0,55.0,30.13,North,359,0.0,0.0,54,0.00,,,0.00,,2013-08-06 14:42:00,
2013-08-06 11:02:00,75.0,56.0,30.13,North,359,0.0,0.0,52,0.00,,,0.00,,2013-08-06 15:02:00,
2013-08-06 11:12:00,75.0,56.0,30.13,North,359,0.0,0.0,52,0.00,,,0.00,,2013-08-06 15:12:00,
2013-08-06 11:23:00,76.0,57.0,30.13,North,359,0.0,0.0,52,0.00,,,0.00,,2013-08-06 15:23:00,
2013-08-06 12:02:00,78.0,56.0,30.14,North,359,0.0,0.0,46,0.00,,,0.00,,2013-08-06 16:02:00,
2013-08-06 12:11:00,78.0,55.0,30.14,North,359,0.0,0.0,45,0.00,,,0.00,,2013-08-06 16:11:00,
2013-08-06 12:32:00,78.0,55.0,30.14,North,359,0.0,0.0,45,0.00,,,0.00,,2013-08-06 16:32:00,
2013-08-06 12:43:00,79.0,55.0,30.14,North,359,0.0,0.0,43,0.00,,,0.00,,2013-08-06 16:43:00,
2013-08-06 12:52:00,79.0,55.0,30.14,North,359,0.0,0.0,43,0.00,,,0.00,,2013-08-06 16:52:00,
2013-08-06 13:02:00,79.0,57.0,30.14,North,359,0.0,0.0,47,0.00,,,0.00,,2013-08-06 17:02:00,
2013-08-06 13:11:00,79.0,57.0,30.14,North,359,0.0,0.0,47,0.00,,,0.00,,2013-08-06 17:11:00,
2013-08-06 13:21:00,80.0,55.0,30.14,North,359,0.0,0.0,43,0.00,,,0.00,,2013-08-06 17:21:00,
2013-08-06 13:32:00,79.0,52.0,30.12,North,359,0.0,0.0,39,0.00,,,0.00,,2013-08-06 17:32:00,
2013-08-06 13:44:00,79.0,53.0,30.12,North,359,0.0,0.0,40,0.00,,,0.00,,2013-08-06 17:44:00,
2013-08-06 14:01:00,80.0,53.0,30.12,North,359,0.0,0.0,39,0.00,,,0.00,,2013-08-06 18:01:00,
2013-08-06 14:11:00,81.0,52.0,30.12,North,359,0.0,0.0,37,0.00,,,0.00,,2013-08-06 18:11:00,
2013-08-06 14:22:00,81.0,52.0,30.12,North,359,0.0,0.0,37,0.00,,,0.00,,2013-08-06 18:22:00,
2013-08-06 14:32:00,81.0,52.0,30.12,North,359,0.0,0.0,37,0.00,,,0.00,,2013-08-06 18:32:00,
2013-08-06 14:43:00,81.0,51.0,30.11,North,359,0.0,0.0,35,0.00,,,0.00,,2013-08-06 18:43:00,
2013-08-06 14:52:00,81.0,51.0,30.11,North,359,0.0,0.0,35,0.00,,,0.00,,2013-08-06 18:52:00,
2013-08-06 15:01:00,81.0,51.0,30.11,North,359,0.0,0.0,35,0.00,,,0.00,,2013-08-06 19:01:00,
2013-08-06 15:11:00,81.0,51.0,30.11,North,359,0.0,0.0,35,0.00,,,0.00,,2013-08-06 19:11:00,
2013-08-06 15:22:00,82.0,52.0,30.10,North,359,0.0,0.0,36,0.00,,,0.00,,2013-08-06 19:22:00,
2013-08-06 15:32:00,82.0,52.0,30.10,North,359,0.0,0.0,35,0.00,,,0.00,,2013-08-06 19:32:00,
2013-08-06 15:42:00,82.0,52.0,30.11,North,359,0.0,0.0,36,0.00,,,0.00,,2013-08-06 19:42:00,
2013-08-06 16:01:00,82.0,52.0,30.10,North,359,0.0,0.0,36,0.00,,,0.00,,2013-08-06 20:01:00,
2013-08-06 16:11:00,81.0,53.0,30.10,North,359,0.0,0.0,38,0.00,,,0.00,,2013-08-06 20:11:00,
2013-08-06 17:01:00,80.0,53.0,30.11,North,359,0.0,0.0,40,0.00,,,0.00,,2013-08-06 21:01:00,
2013-08-06 17:11:00,80.0,53.0,30.11,North,359,0.0,0.0,40,0.00,,,0.00,,2013-08-06 21:11:00,
2013-08-06 17:32:00,81.0,54.0,30.11,North,359,0.0,0.0,40,0.00,,,0.00,,2013-08-06 21:32:00,
2013-08-06 17:43:00,80.0,54.0,30.11,North,359,0.0,0.0,41,0.00,,,0.00,,2013-08-06 21:43:00,
2013-08-06 18:01:00,79.0,55.0,30.11,North,359,0.0,0.0,43,0.00,,,0.00,,2013-08-06 22:01:00,
2013-08-06 18:11:00,79.0,55.0,30.11,North,359,0.0,0.0,43,0.00,,,0.00,,2013-08-06 22:11:00,
2013-08-06 18:43:00,78.0,55.0,30.12,North,359,0.0,0.0,45,0.00,,,0.00,,2013-08-06 22:43:00,
2013-08-06 19:02:00,77.0,55.0,30.12,North,359,0.0,0.0,46,0.00,,,0.00,,2013-08-06 23:02:00,
2013-08-06 19:11:00,77.0,55.0,30.12,North,359,0.0,0.0,46,0.00,,,0.00,,2013-08-06 23:11:00,
2013-08-06 19:43:00,74.0,55.0,30.14,North,359,0.0,0.0,52,0.00,,,0.00,,2013-08-06 23:43:00,
2013-08-06 20:01:00,73.0,56.0,30.14,North,359,0.0,0.0,55,0.00,,,0.00,,2013-08-07 00:01:00,
2013-08-06 20:11:00,73.0,56.0,30.14,North,359,0.0,0.0,55,0.00,,,0.00,,2013-08-07 00:11:00,
2013-08-06 20:32:00,72.0,56.0,30.13,North,359,0.0,0.0,58,0.00,,,0.00,,2013-08-07 00:32:00,
2013-08-06 20:43:00,71.0,56.0,30.14,North,359,0.0,0.0,59,0.00,,,0.00,,2013-08-07 00:43:00,
2013-08-06 21:01:00,71.0,57.0,30.14,North,359,0.0,0.0,62,0.00,,,0.00,,2013-08-07 01:01:00,
2013-08-06 21:11:00,71.0,57.0,30.14,North,359,0.0,0.0,62,0.00,,,0.00,,2013-08-07 01:11:00,
2013-08-06 21:22:00,71.0,58.0,30.14,North,359,0.0,0.0,63,0.00,,,0.00,,2013-08-07 01:22:00,
2013-08-06 21:43:00,70.0,58.0,30.15,North,359,0.0,0.0,66,0.00,,,0.00,,2013-08-07 01:43:00,
2013-08-06 22:11:00,68.0,58.0,30.14,North,359,0.0,0.0,71,0.00,,,0.00,,2013-08-07 02:11:00,
2013-08-06 22:33:00,67.0,58.0,30.15,North,359,0.0,0.0,74,0.00,,,0.00,,2013-08-07 02:33:00,
2013-08-06 22:53:00,66.0,59.0,30.15,North,359,0.0,0.0,77,0.00,,,0.00,,2013-08-07 02:53:00,
2013-08-06 23:01:00,66.0,59.0,30.15,North,359,0.0,0.0,79,0.00,,,0.00,,2013-08-07 03:01:00,
2013-08-06 23:12:00,66.0,59.0,30.15,North,359,0.0,0.0,79,0.00,,,0.00,,2013-08-07 03:12:00,
2013-08-06 23:43:00,66.0,60.0,30.15,North,359,0.0,0.0,80,0.00,,,0.00,,2013-08-07 03:43:00,